Location: Unspecified
(35.6961°N, 0.0000°E)
Time: 13:02:16
(UTC+00:00)

Vanguard 1 Rocket - Visible Passes

Search period start: 23 October 2019 00:00
Search period end: 02 November 2019 00:00
Orbit: 650 x 4226 km, 34.3° (Epoch: 20 October)

Date Brightness Start Highest point End Pass type
(mag) Time Alt. Az. Time Alt. Az. Time Alt. Az.
24 Oct 11.9 18:18:58 10° W 18:33:14 18° SW 18:46:01 10° SSW visible
25 Oct 11.8 17:00:13 10° W 17:19:59 31° SW 17:38:27 10° S visible
26 Oct 12.1 18:26:21 10° WSW 18:34:58 13° SW 18:43:08 10° SW visible
27 Oct 12.0 17:04:20 10° W 17:21:43 24° SW 17:38:34 10° S visible
29 Oct 12.2 17:09:32 10° W 17:23:34 18° SW 17:37:33 10° SSW visible
31 Oct 10.3 05:00:42 10° SSE 05:03:10 12° SE 05:06:05 10° ESE visible
31 Oct 12.4 17:17:19 10° WSW 17:25:35 12° SW 17:33:56 10° SSW visible
